Portada
METAR-TAF:

METAR-TAF

Aeroports :

Charleville, Austràlia

latitud: 26-24-45S, longitud: 146-15-44E, altitud: 306 m

Observació

L'informe es va fer fa 1 hora i 8 minuts, a les 15:00 UTC
Vent 8 kt del Sud-Oest
Temperatura 26°C
Humitat 51%
Pressió 1003 hPa
Visibilitat 10 km o més

METAR: YBCV 131500Z AUTO 22008KT 9999 // NCD 26/15 Q1003

Hora: 02:08 (16:08 UTC)


TAF: manca

Observacions i pronòstics meteorològics de més de 4000 aeroports (METAR i TAF).

Les estacions disponibles són els punts grocs i vermells al mapa.

Posi el ratolí al punt desitjat per veure el nom de l'estació.

Feu clic per veure les observacions i els pronòstics meteorològics.

Per canviar el mapa: feu clic els botons verds amb una creu de color negre per apropar; al botó verd amb un guió per allunyar la imatge; o en les fletxes verdes per a mapes adjacents.


METAR-TAF: